RH
5 7 16 23 24 23 20 15 15 13 11 13 15 14 11 8 5 3 2 2 3 3 3 3 3 3 3 3 3 3 3 3 3 3 3 3 3 3 3 4 4 5 6 6 7 9 11 12 11 10 9 8 8 8 7 8 9 6 10 14 12 16 21 25 30 33 33 34 34 31 25 19 14 10 7 5 5 5 5 6 7 8 9 10 11 12 13 15
5 12 20 23 22 23 19 15 13 10 11 14 15 13 9 6 4 3 3 3 3 3 4 3 3 3 3 3 3 4 5 4 4 5 6 5 6 6 6 7 8 8 9 9 9 10 10 11 12 13 12 10 11 12 13 14 13 13 11 10 16 23 25 27 29 32 34 32 28 21 15 10 6 6 5 5 5 5 5 6 8 9 10 10 11 12 14 16
7 15 20 20 21 21 16 12 12 11 13 15 15 12 6 3 3 3 3 3 4 4 3 3 3 3 3 4 5 7 8 6 6 8 7 7 6 6 7 6 7 7 7 7 7 8 7 7 7 9 11 10 12 13 14 15 16 18 18 19 22 25 26 27 29 29 26 19 13 8 6 6 5 6 5 5 5 4 5 7 9 10 11 12 12 14 16 18
10 16 18 19 20 17 12 13 15 15 15 15 15 9 3 3 3 3 3 4 4 3 4 3 3 4 5 6 6 9 10 7 6 7 5 5 5 4 5 5 6 6 7 7 6 6 6 6 6 7 10 11 13 14 15 18 19 19 20 22 24 25 25 25 24 19 12 7 7 6 7 8 8 6 4 5 5 7 8 9 12 12 14 15 16 17 18 19
12 16 18 19 16 12 15 19 19 18 17 16 14 7 2 3 3 4 4 4 4 4 4 4 5 6 6 7 6 8 10 8 6 6 5 4 3 3 4 5 6 6 8 7 4 4 4 6 6 7 9 11 14 16 19 21 21 18 17 18 24 26 22 18 14 9 8 7 7 7 7 8 8 6 5 5 7 10 11 13 14 16 17 18 20 20 20 19
13 16 18 17 12 13 20 22 18 15 15 14 10 5 3 3 4 4 4 5 6 5 6 6 7 7 7 7 6 5 7 7 5 5 4 4 3 4 4 5 6 6 7 4 3 3 3 5 6 7 7 9 15 17 17 17 15 16 15 16 21 20 14 11 11 14 17 14 11 10 8 7 7 6 6 6 9 12 12 14 15 17 20 22 22 22 20 20
14 17 19 15 10 16 23 17 10 7 8 8 5 3 3 4 4 5 6 7 7 7 7 7 8 7 7 6 5 4 4 4 4 4 4 4 3 4 4 5 4 4 4 3 3 2 3 4 4 7 6 7 13 16 14 10 9 13 12 11 13 12 11 14 20 26 24 17 16 15 11 7 6 7 6 7 11 12 13 14 15 17 21 22 23 22 21 20
13 16 18 12 11 20 19 9 4 2 3 4 3 3 4 5 6 7 8 8 8 8 8 8 8 7 6 6 5 4 3 3 3 3 3 3 3 4 4 4 3 3 3 3 3 3 3 3 3 5 6 7 9 10 9 7 10 15 10 7 13 14 14 20 26 25 19 15 16 18 15 8 6 8 7 8 9 10 12 13 14 18 21 22 23 23 21 22
13 15 14 11 14 19 11 3 3 2 3 3 3 5 5 7 8 9 9 8 8 8 7 7 7 5 4 5 5 4 3 3 3 3 4 3 4 4 4 4 3 3 3 3 3 3 3 3 4 4 6 6 6 6 6 8 14 17 12 11 18 16 14 20 19 15 15 16 19 23 21 10 6 9 8 8 8 7 8 9 13 20 24 25 26 26 24 23
12 12 11 12 15 12 5 2 3 3 3 4 5 6 8 9 9 8 8 7 6 6 6 6 5 3 3 3 3 4 3 3 3 4 4 4 4 4 4 4 4 4 4 4 4 4 4 4 4 5 6 6 5 6 6 9 11 14 18 21 24 21 15 13 8 9 16 19 24 30 26 14 8 9 9 9 8 8 8 8 12 20 27 30 31 31 29 24
8 9 10 10 9 5 3 3 3 4 4 5 7 9 10 10 8 7 7 6 4 4 5 5 3 2 3 3 3 4 3 3 4 4 4 4 4 4 4 4 4 5 4 4 4 4 5 5 5 6 7 7 9 9 7 9 9 12 21 26 29 24 13 8 9 14 19 23 31 34 28 18 9 8 10 10 10 11 10 10 14 21 29 33 34 35 34 29
5 7 7 5 3 3 3 4 4 5 6 7 9 10 9 8 7 6 6 5 4 3 4 4 3 3 4 3 3 3 4 4 4 4 5 5 5 5 5 5 5 6 5 5 6 6 7 7 6 6 7 9 12 12 11 11 12 12 16 25 28 20 10 8 13 16 18 26 33 32 26 15 8 9 11 12 13 15 14 15 20 26 31 34 37 39 40 37
3 4 3 3 3 4 4 4 6 7 9 10 10 9 8 7 6 5 4 4 3 3 4 3 4 4 4 3 3 4 4 5 5 5 5 5 6 6 6 6 7 7 7 6 7 7 8 7 6 6 7 8 11 14 15 17 18 12 11 21 20 9 7 8 10 11 13 19 22 22 19 10 7 10 12 14 17 18 19 22 28 32 35 38 41 42 43 43
3 3 3 4 4 5 6 8 9 10 10 9 8 8 7 7 5 4 4 4 4 4 4 4 4 4 4 3 4 4 5 5 6 6 6 6 6 7 7 7 7 8 8 7 8 9 8 8 7 6 6 9 12 16 21 23 20 8 8 17 12 5 7 7 8 9 10 13 12 13 14 9 9 11 13 16 16 18 21 27 35 40 42 44 47 46 44 46
4 4 4 5 6 8 10 11 12 10 9 8 7 5 5 6 5 5 5 4 4 4 3 4 4 4 4 4 4 5 6 7 7 7 7 7 7 8 8 8 9 9 9 8 8 8 8 9 8 5 5 10 15 19 25 26 15 4 7 11 8 7 9 8 10 11 12 12 10 12 13 11 11 12 13 16 18 21 27 35 42 46 49 50 51 51 50 52
5 5 6 8 10 11 11 11 9 8 7 7 6 5 4 4 4 5 6 6 7 6 6 5 4 4 4 4 6 6 7 7 7 7 7 8 8 8 8 9 11 11 9 9 8 7 7 8 7 5 5 8 11 13 21 22 10 4 7 7 7 11 11 9 9 12 13 12 11 13 13 13 13 14 16 20 26 31 35 43 49 51 53 54 55 56 57 59
6 7 9 11 11 10 9 8 8 8 8 8 7 5 4 4 4 5 5 6 7 8 9 8 7 6 5 5 7 6 7 7 7 8 8 8 9 9 8 9 11 11 9 10 10 7 6 6 5 5 5 5 6 6 11 14 7 5 8 7 9 13 15 13 10 11 13 13 13 14 15 15 14 15 20 26 33 38 43 50 54 55 56 57 58 59 61 62
7 10 11 10 9 7 6 5 6 7 9 9 6 4 4 4 4 4 4 5 6 6 7 7 9 9 6 6 7 7 7 8 8 9 8 8 10 9 8 8 9 9 9 11 10 6 6 6 5 5 5 5 6 6 7 8 7 8 9 8 13 17 18 16 13 13 14 15 15 15 16 16 14 17 23 31 37 42 50 56 58 58 59 59 61 62 64 65
10 12 11 8 7 5 4 5 5 6 8 7 5 5 5 4 4 5 5 6 5 5 6 6 7 8 8 8 9 9 8 9 9 9 9 8 9 9 7 7 8 8 8 9 7 6 6 6 6 6 6 7 7 7 7 8 9 9 9 12 18 20 17 15 14 15 15 16 15 16 17 17 16 19 27 34 36 42 52 58 59 60 60 61 62 63 65 67
12 11 9 7 5 4 5 5 6 6 6 6 5 5 5 5 5 6 6 5 5 6 7 8 7 8 9 10 11 10 9 9 9 9 9 8 8 9 7 7 8 8 7 7 7 8 7 6 7 7 8 8 8 8 9 9 9 10 11 14 17 16 14 14 16 16 16 17 16 16 19 21 21 22 30 34 32 39 50 57 59 59 60 61 63 65 68 70
12 9 7 5 5 4 5 5 5 6 6 6 6 5 6 6 6 6 6 5 6 8 8 9 9 9 9 11 12 11 11 10 9 9 9 8 9 8 8 8 7 7 7 8 10 9 8 8 8 8 9 9 9 9 9 9 11 11 12 14 15 14 15 16 17 17 18 20 17 17 24 28 28 28 29 29 30 37 44 51 57 59 60 63 64 67 70 73
10 8 6 5 5 5 5 5 5 5 5 6 6 6 7 7 6 6 6 6 8 9 10 10 10 10 10 10 11 11 11 10 9 9 9 9 8 8 8 7 7 7 7 9 11 10 8 9 9 10 11 11 11 10 10 11 11 12 13 15 15 16 17 16 17 19 20 20 19 21 31 35 33 31 29 28 30 33 38 45 55 60 62 64 67 70 74 77
9 7 6 5 5 5 6 6 6 6 6 7 7 8 10 11 10 8 7 7 8 9 10 11 10 11 11 10 11 12 11 10 10 10 10 9 9 8 8 8 8 8 8 10 12 10 9 10 11 12 12 14 14 13 13 12 11 13 16 17 18 18 19 18 18 19 20 21 23 23 29 35 34 30 29 29 28 30 36 46 55 60 64 67 71 74 78 81
8 6 5 5 6 7 7 7 8 7 7 8 9 10 11 12 13 13 11 8 8 10 9 10 11 11 12 11 11 12 11 11 10 11 10 10 9 9 9 9 9 10 10 11 13 11 9 12 13 14 16 17 17 15 15 13 12 14 17 18 19 18 20 20 20 20 20 20 23 24 28 35 34 28 27 27 27 31 40 50 59 62 66 72 76 79 83 85
6 6 6 7 8 9 9 10 10 9 9 10 10 11 11 12 14 16 14 9 9 10 9 10 12 12 13 12 12 13 13 12 11 11 11 10 10 10 11 10 11 13 11 11 15 13 10 12 15 17 20 21 20 18 15 13 13 15 17 18 19 21 21 21 21 22 23 23 24 30 38 41 33 27 30 31 32 38 47 55 62 67 71 75 79 82 85 86
7 8 9 11 12 12 12 12 12 12 12 12 12 12 10 10 13 16 16 12 9 10 10 10 12 13 13 13 13 14 14 13 12 12 11 11 11 11 12 11 12 15 12 10 16 14 10 12 15 20 24 25 23 19 15 14 15 17 19 18 21 24 22 22 22 24 28 27 29 38 41 37 31 28 29 33 41 49 55 60 65 70 73 76 81 82 81 80
10 12 13 13 13 13 13 13 13 13 13 13 14 14 11 10 12 15 18 15 11 11 11 11 13 14 14 14 14 13 13 14 13 13 12 12 12 13 14 12 12 16 12 10 13 12 10 11 14 20 25 26 23 18 14 15 18 19 19 20 23 23 22 23 23 25 27 26 34 43 34 27 29 28 30 38 52 63 65 68 72 75 78 80 81 79 75 72
13 12 12 12 12 12 12 12 12 12 13 13 13 14 13 12 14 15 16 16 13 12 13 13 13 15 15 15 15 14 14 14 14 14 13 13 13 14 15 12 13 15 12 10 12 12 11 12 15 20 24 25 21 16 14 16 20 21 21 23 24 24 24 24 23 25 26 27 39 42 29 32 35 30 41 56 68 75 74 74 77 78 81 80 76 73 67 64
12 12 12 11 11 11 11 11 11 11 11 12 13 12 9 12 18 15 12 13 12 12 13 13 14 16 16 16 15 15 15 15 15 15 15 14 14 14 15 13 13 14 12 11 12 12 12 13 17 21 24 24 19 16 15 17 22 23 24 25 23 25 25 24 25 25 25 32 41 35 29 42 43 37 57 76 79 79 76 77 78 76 75 73 70 67 62 60
13 13 12 11 11 11 11 10 10 10 10 10 12 10 6 11 17 13 10 13 13 12 12 13 15 16 16 16 16 16 16 16 15 16 16 15 15 15 15 15 14 14 15 13 13 13 12 15 19 20 21 21 19 17 15 18 23 23 25 25 22 26 26 25 26 23 29 41 41 32 30 41 48 52 66 75 74 77 78 77 76 73 72 69 65 62 61 60
14 13 12 11 10 10 9 9 9 9 9 9 9 10 9 9 11 12 14 16 14 13 12 13 16 17 17 17 17 17 17 16 15 16 16 15 16 15 15 15 14 16 17 14 14 14 13 18 21 16 17 22 20 16 15 20 24 24 28 26 24 28 27 27 30 28 39 50 39 30 32 38 48 54 58 61 67 73 74 73 73 72 70 65 62 61 61 60
12 11 10 9 8 7 7 6 7 7 8 8 8 11 13 9 9 14 16 14 13 14 13 14 17 18 18 18 17 17 17 17 16 16 16 16 17 16 15 15 14 15 15 14 15 14 14 22 23 16 19 25 20 14 17 21 22 25 29 27 29 39 40 41 44 42 44 45 35 31 37 40 40 45 53 57 61 64 64 68 70 68 65 62 62 62 61 59
9 8 7 6 5 5 5 4 5 5 6 7 8 9 10 9 11 14 14 13 14 16 15 16 18 19 19 18 18 18 17 17 17 16 18 18 17 17 16 16 15 15 14 14 17 17 17 23 22 16 21 26 19 14 20 22 21 27 32 30 35 47 55 60 62 59 52 42 35 37 46 46 38 45 56 54 56 59 58 62 66 64 64 64 63 63 60 53
6 5 5 5 5 4 4 4 4 5 6 6 7 7 8 9 12 13 13 14 16 18 18 17 18 19 19 19 19 18 17 18 18 17 18 18 18 19 17 16 16 15 15 16 19 22 23 24 20 16 24 27 18 16 22 23 24 30 34 34 35 37 49 64 69 66 56 47 46 48 50 46 38 44 51 47 53 58 56 62 66 65 65 65 64 61 53 45
4 5 4 5 5 4 4 4 5 6 7 7 7 8 9 11 13 12 13 15 17 19 19 19 19 19 20 20 19 19 18 18 19 18 18 18 19 20 17 17 17 14 16 18 20 25 27 23 17 18 26 27 19 17 21 23 28 33 36 37 35 31 38 54 58 54 54 61 66 59 48 40 37 41 44 47 55 59 63 67 64 64 65 64 62 54 49 51
4 4 4 4 5 5 5 5 6 7 7 8 8 9 11 12 13 13 14 16 18 19 20 20 19 19 20 20 20 20 19 19 20 19 19 19 20 22 19 17 17 15 16 18 21 27 29 23 17 20 28 27 19 18 21 25 30 35 39 38 34 33 42 56 61 54 57 73 71 52 43 42 43 46 46 49 56 59 64 65 63 67 67 60 57 55 59 63
4 5 5 5 6 6 6 7 8 8 7 8 9 10 12 12 13 14 15 17 18 20 20 19 19 19 20 21 20 21 19 19 20 20 20 20 21 23 20 17 17 15 16 19 22 28 31 24 17 20 26 23 19 19 21 26 31 36 44 39 31 39 50 60 69 67 68 79 67 46 48 52 51 54 54 52 57 60 63 67 68 67 62 59 64 69 70 62
5 6 6 7 7 7 7 8 8 9 9 9 10 12 13 13 15 16 17 18 19 20 21 20 20 20 21 21 21 21 20 19 21 20 20 20 21 23 21 17 16 15 16 20 22 26 29 25 20 21 23 20 19 21 22 26 30 36 43 37 34 48 58 60 69 75 80 86 72 54 53 55 54 56 58 59 63 67 70 70 67 63 63 70 78 76 66 55
7 8 8 9 9 8 9 8 8 10 10 10 11 13 15 16 17 18 18 19 19 20 21 21 21 21 22 22 21 21 21 20 22 21 20 21 21 22 21 17 15 16 18 21 24 26 29 29 26 22 21 21 20 21 23 27 31 34 38 38 39 49 56 60 66 72 81 86 80 69 62 59 60 60 62 67 70 71 72 69 66 67 72 81 82 71 60 56
8 9 9 9 9 9 9 9 10 10 10 10 11 13 16 17 19 19 19 19 19 20 21 22 22 23 23 23 22 22 22 21 22 22 21 21 20 21 20 16 14 17 19 22 25 26 27 31 31 23 21 22 22 23 26 30 34 36 37 41 45 48 52 62 65 62 72 81 81 80 73 63 64 67 67 69 69 69 70 69 70 72 79 86 80 66 59 59
9 8 9 9 9 9 10 10 10 10 9 11 13 14 16 18 19 20 20 20 20 20 22 23 23 23 24 23 23 23 22 22 23 23 22 21 20 19 18 16 15 18 21 23 26 26 24 30 34 27 22 22 23 25 29 36 40 41 42 43 49 54 57 71 75 61 61 70 72 83 87 73 65 66 65 66 68 69 69 71 74 79 86 87 74 63 60 62
8 8 8 9 9 9 11 11 9 9 10 11 14 15 16 18 18 19 19 20 20 21 22 24 24 24 24 24 23 23 23 22 23 23 22 20 19 18 17 17 17 19 23 24 27 26 24 28 32 27 23 25 26 26 29 37 40 41 44 43 49 55 57 70 78 67 65 68 68 83 92 75 61 61 63 67 70 72 74 76 80 86 88 80 68 62 62 67
7 6 7 9 9 10 11 10 9 10 11 12 14 15 16 17 18 19 19 20 21 22 23 24 24 24 25 24 24 24 23 22 23 24 23 20 19 19 18 18 19 21 24 27 29 27 25 27 27 23 23 24 25 27 28 32 36 40 42 42 48 52 50 55 60 63 78 84 79 89 88 66 56 60 64 70 74 76 77 79 85 89 83 73 67 65 68 77
5 5 7 8 8 9 10 10 10 10 11 13 15 15 16 17 17 19 20 20 21 22 23 24 24 24 25 25 24 24 24 23 23 23 23 21 20 20 19 19 21 23 25 28 29 28 26 26 27 32 37 35 32 33 32 32 38 41 42 45 49 48 44 44 45 59 85 87 80 89 84 62 58 64 67 73 79 80 80 82 88 87 78 72 70 71 78 86
6 6 7 8 9 9 8 9 10 10 11 13 15 16 16 16 17 18 19 20 21 22 23 24 25 25 26 25 24 25 25 25 25 24 23 22 21 21 20 21 23 24 26 27 28 29 29 28 29 38 48 50 46 41 36 37 42 44 45 47 48 45 43 45 51 69 84 79 73 81 77 65 65 69 72 78 83 84 84 86 87 82 77 76 73 77 83 87
6 6 7 8 9 8 7 8 11 11 12 14 14 15 16 16 17 17 19 20 21 23 23 24 25 25 25 25 24 25 25 26 25 24 23 23 21 21 22 23 25 26 27 27 28 30 31 31 31 33 38 42 40 35 36 41 45 47 49 47 45 46 45 48 59 70 73 74 75 73 71 75 76 74 79 86 88 90 89 87 84 81 80 79 77 81 85 89
6 6 7 8 8 8 7 8 11 12 13 14 14 15 15 16 17 17 19 21 22 23 24 24 25 25 25 25 24 25 26 26 25 24 24 23 22 22 23 24 26 28 27 27 29 31 32 33 33 35 38 38 35 34 37 43 48 50 51 49 46 47 48 53 61 63 67 80 83 71 72 84 82 80 88 93 93 95 91 86 84 85 86 85 81 82 89 98
5 5 6 7 7 8 8 9 11 13 14 14 14 15 15 15 17 18 19 22 22 23 24 24 25 25 25 24 24 25 26 25 25 25 25 23 23 24 24 25 28 28 27 27 29 31 34 35 37 40 40 37 36 37 40 45 49 48 47 48 48 51 55 57 59 62 70 83 85 77 80 86 84 85 93 94 95 94 88 84 87 90 90 85 82 88 98 100
4 4 5 6 6 7 9 10 12 14 15 15 14 14 14 15 17 18 20 22 23 23 24 24 25 25 24 24 24 25 26 25 25 25 24 24 24 24 25 26 28 28 27 28 30 33 36 37 42 46 42 38 38 40 42 47 48 43 44 49 52 55 58 59 64 70 75 80 82 82 87 87 85 91 95 93 92 88 83 87 93 94 92 87 88 98 101 90
4 4 5 6 6 7 9 11 13 15 15 15 15 14 14 15 17 19 20 22 23 23 23 24 24 24 24 24 24 25 26 26 26 25 25 25 25 25 26 28 29 28 28 30 32 36 40 41 46 48 43 39 40 41 43 47 46 45 47 52 54 57 61 65 71 75 80 84 85 88 92 90 88 92 93 89 86 85 87 95 99 96 94 93 97 101 93 79
3 4 5 6 6 8 11 12 14 16 15 14 14 14 15 16 18 20 21 21 22 23 22 23 23 23 23 23 24 25 26 26 26 25 25 26 25 26 27 28 29 29 30 33 35 39 43 45 46 46 44 42 42 42 45 46 44 46 50 53 57 63 71 77 76 78 84 89 89 93 99 98 94 90 87 84 87 91 95 100 102 99 97 98 99 96 86 72
3 4 5 6 8 9 12 14 15 16 15 14 14 14 16 17 19 21 21 22 22 22 22 22 22 22 23 23 24 25 25 25 25 25 25 26 26 27 28 29 31 32 33 36 38 41 44 46 46 48 47 44 43 46 48 48 50 54 56 59 64 70 76 79 77 77 79 83 92 100 101 98 90 84 85 89 93 99 102 104 103 100 99 99 95 86 77 67
Wind_Speed
16 16 16 14 10 8 7 7 6 6 5 5 4 4 5 6 6 6 6 6 7 7 8 8 9 8 7 7 7 7 7 6 6 7 8 7 6 6 7 7 7 7 6 6 6 5 5 4 3 3 3 4 4 4 5 5 5 6 9 11 13 13 12 11 10 10 12 16 18 20 22 23 24 24 23 22 21 20 19 17 17 15 15 14 14 13 12 12
17 16 15 13 9 7 7 6 6 5 5 4 3 3 4 5 5 6 7 7 8 9 9 9 9 8 7 7 7 7 5 5 7 9 9 8 7 6 6 6 6 7 6 7 7 6 5 5 3 3 4 3 3 3 4 4 5 6 9 11 12 12 12 12 11 12 14 17 19 19 20 20 20 20 19 20 21 20 19 18 16 15 14 14 14 14 14 13
16 15 14 11 8 7 7 6 5 5 4 3 2 3 4 4 5 6 7 8 9 9 9 9 9 8 8 8 7 7 5 6 9 8 8 8 8 7 7 7 7 7 7 7 7 7 7 6 4 3 4 3 3 4 4 4 5 7 8 10 12 13 12 12 13 13 15 17 17 16 16 16 16 17 19 20 20 19 18 17 16 15 14 14 15 16 16 16
15 14 12 10 7 7 7 6 4 4 4 2 2 3 4 4 5 7 8 8 9 9 8 8 8 9 9 9 9 7 6 9 9 8 9 9 9 9 8 8 8 8 8 8 7 7 7 7 6 4 2 3 3 4 4 4 6 8 8 10 11 12 13 13 13 13 14 14 14 14 14 14 14 16 19 20 20 19 17 15 15 15 15 15 16 17 18 18
13 12 11 9 8 8 7 5 4 3 2 1 1 4 4 5 6 7 8 8 9 8 8 9 10 10 10 10 10 9 7 8 10 10 10 10 10 10 9 9 9 10 10 9 8 7 7 7 6 4 3 3 3 4 4 5 7 9 9 9 10 11 12 12 10 10 11 12 12 12 12 13 15 17 19 20 19 17 16 15 15 15 15 16 16 17 18 18
12 12 11 9 8 7 6 4 3 2 1 0 2 3 5 6 7 7 8 9 9 9 9 10 11 11 11 10 10 11 9 8 9 10 10 11 11 11 11 11 11 11 10 9 8 8 7 6 6 6 5 3 3 4 5 7 8 9 10 8 7 8 8 7 7 8 11 14 13 12 12 13 16 18 19 18 17 16 16 16 16 16 16 16 17 18 18 17
12 12 10 9 7 7 5 4 2 1 1 0 2 4 5 6 8 9 10 10 10 11 10 10 10 11 12 10 10 12 11 9 10 11 11 11 12 13 12 11 11 10 9 7 7 7 6 5 5 5 6 5 4 5 7 8 8 7 8 6 4 5 5 6 8 9 12 15 14 15 16 16 19 19 19 18 16 17 18 18 18 18 18 18 18 19 19 17
12 11 9 7 6 6 5 3 2 1 1 1 3 4 6 8 9 10 11 11 11 11 11 10 10 10 12 11 12 12 10 11 12 12 12 12 13 13 11 10 9 9 7 6 6 7 7 6 5 5 6 6 4 4 5 6 6 5 4 3 3 7 7 6 8 10 13 15 16 18 19 19 19 21 22 20 19 19 20 21 21 20 19 19 20 21 20 19
11 10 8 7 6 6 4 2 2 2 2 3 4 5 8 10 11 11 12 12 11 10 10 10 10 10 12 12 12 12 12 13 14 13 12 11 11 11 9 8 8 8 6 6 7 7 7 6 6 6 5 4 3 3 4 4 2 2 3 3 4 8 8 6 9 12 14 16 19 22 24 22 20 23 24 22 22 23 23 22 22 22 21 21 21 23 23 21
11 9 8 8 7 5 4 3 4 4 4 5 6 8 10 11 11 11 11 12 11 10 10 10 10 11 13 14 12 12 12 13 13 11 11 10 10 9 8 8 8 7 7 7 7 6 7 6 7 7 4 3 3 3 3 1 1 2 3 3 5 9 10 10 12 14 15 17 20 25 27 25 24 25 24 24 26 26 25 24 24 23 22 22 23 25 25 24
11 10 10 8 7 6 5 5 5 5 5 7 9 11 11 11 11 10 11 12 12 12 12 10 10 13 17 15 10 10 12 12 11 10 9 9 9 8 8 8 8 8 8 8 7 7 7 7 8 8 5 5 5 3 1 0 0 2 2 3 6 9 12 15 15 14 14 17 20 25 29 28 26 25 25 26 28 27 26 26 26 25 24 24 26 27 28 28
12 11 10 8 7 7 6 6 6 6 8 9 11 11 11 11 10 10 11 12 13 14 13 11 12 16 15 9 7 10 11 10 9 9 10 9 9 8 8 8 9 10 10 10 9 9 9 10 8 7 7 7 5 3 2 1 1 3 5 6 7 8 11 13 13 13 14 15 18 24 31 29 24 24 26 27 28 27 27 27 26 25 25 26 27 28 29 30
12 11 10 9 8 8 7 7 8 9 10 11 12 12 11 12 12 12 12 13 15 15 13 12 14 13 7 4 8 11 10 10 10 11 11 10 9 9 9 9 11 12 13 13 12 12 12 11 9 8 8 7 5 4 4 2 2 6 8 7 7 8 10 11 12 14 15 15 17 22 33 32 24 25 28 28 28 28 28 27 26 25 25 27 28 29 29 30
12 11 10 10 9 8 9 9 10 11 12 13 13 13 12 12 13 13 13 14 15 14 12 12 12 11 6 6 10 11 12 13 13 12 11 10 10 10 10 11 13 14 13 13 13 13 13 13 10 8 8 7 5 5 6 6 6 9 9 8 11 13 13 12 13 17 19 20 21 22 32 34 28 28 29 29 29 29 28 27 26 25 25 26 27 28 29 31
12 11 11 10 10 10 11 12 13 13 13 14 14 14 14 14 14 14 14 13 12 10 10 9 8 9 7 9 11 12 13 13 12 11 11 11 11 11 12 13 14 14 13 13 13 12 12 12 8 7 8 7 4 6 9 8 7 11 12 12 15 17 18 15 13 20 24 25 26 24 29 34 31 28 28 29 29 27 26 25 24 24 23 24 26 27 29 29
12 12 12 12 13 13 14 14 14 14 14 15 15 15 16 16 15 15 15 14 11 9 8 7 7 7 7 10 13 12 11 11 13 14 13 12 12 13 14 14 13 12 12 13 13 12 11 9 6 5 6 5 5 6 8 8 10 15 17 18 20 21 23 21 17 21 27 30 28 24 28 34 29 25 26 27 25 23 22 22 22 22 22 23 25 27 27 26
13 13 14 15 15 15 15 14 13 13 14 15 14 14 15 15 15 15 13 12 12 11 10 8 6 6 8 11 12 12 13 14 16 15 14 14 13 13 14 14 13 12 13 14 12 12 11 8 8 6 5 7 9 12 8 8 17 20 21 23 22 20 22 25 23 24 29 31 30 27 28 28 22 20 24 23 20 19 19 18 18 19 21 23 25 25 25 26
14 14 15 16 16 16 15 14 13 13 14 14 14 15 14 14 14 13 12 11 11 12 12 11 8 7 10 13 14 17 18 17 17 16 15 14 12 12 13 13 13 13 14 13 11 12 11 9 10 6 6 10 14 16 14 13 19 21 21 22 21 20 20 23 27 29 31 32 31 30 28 24 18 18 21 19 16 15 15 15 16 18 21 23 24 25 25 26
15 15 16 16 17 17 17 16 16 16 16 16 15 15 14 14 13 12 13 12 12 13 14 15 16 14 14 15 16 18 19 18 17 16 14 13 12 12 13 14 14 13 13 12 11 12 11 9 10 7 8 14 16 18 17 15 16 18 20 19 19 21 22 24 27 27 30 35 33 29 30 24 20 20 18 15 12 11 13 14 16 19 22 24 25 26 26 27
15 16 16 16 17 18 20 20 20 20 18 17 16 15 15 13 11 12 12 11 15 19 19 19 20 19 16 15 14 16 18 17 15 13 12 13 13 12 13 15 14 13 13 13 12 12 11 11 11 11 12 15 17 17 16 16 17 18 18 16 16 21 27 28 26 25 27 34 33 28 28 24 20 20 14 12 12 9 10 14 18 22 24 27 28 28 28 28
16 16 16 17 18 20 21 22 22 21 20 19 17 15 14 12 11 13 13 15 19 22 21 21 20 18 17 15 12 15 17 15 13 13 12 13 13 12 13 13 13 13 13 14 12 11 12 12 12 12 12 13 15 15 16 17 18 19 17 17 18 22 31 30 28 29 28 32 33 25 24 22 18 16 12 12 12 10 10 15 20 24 27 29 29 28 28 28
17 17 17 18 19 20 20 21 21 21 20 19 16 14 13 12 13 15 16 19 20 20 20 21 19 17 18 16 13 14 14 10 10 12 12 13 12 11 12 12 12 13 13 12 11 11 13 12 11 10 12 14 14 15 17 18 21 21 17 18 21 25 34 37 36 34 29 33 31 22 24 21 11 10 11 13 13 14 15 16 20 25 28 29 29 28 28 27
17 17 18 19 19 19 19 18 18 18 17 16 14 11 9 9 10 13 16 19 19 18 19 19 18 18 18 17 15 13 13 11 12 13 13 13 12 11 12 13 13 12 11 11 11 13 15 12 10 11 13 14 15 16 19 21 24 22 18 20 25 27 32 38 40 34 31 30 24 23 26 14 4 9 11 13 17 22 20 18 21 25 27 27 26 25 26 26
17 18 18 18 17 17 16 15 14 13 12 10 8 5 4 5 6 7 12 17 20 19 18 18 19 20 18 18 16 13 14 16 15 14 15 14 13 13 14 15 15 13 14 15 14 16 17 13 12 12 13 15 17 18 22 26 26 23 19 22 28 27 30 37 37 33 31 21 15 24 22 3 3 7 10 14 21 24 20 19 21 23 25 24 23 23 24 26
17 18 17 16 15 14 13 12 10 9 7 5 3 2 3 4 4 4 6 12 19 20 19 18 18 21 19 19 18 14 14 16 16 16 16 15 14 15 16 16 16 15 17 18 15 16 17 14 13 13 13 15 17 20 25 28 29 24 19 25 28 25 33 39 32 31 30 16 13 21 13 2 1 6 12 18 22 21 19 19 21 21 23 23 23 24 25 28
18 17 16 15 14 12 11 10 7 6 5 3 2 3 4 4 4 4 2 6 15 20 19 18 18 20 19 18 19 15 13 16 18 17 16 15 15 16 16 16 16 14 15 17 14 14 17 16 15 14 14 15 17 20 24 28 28 22 21 29 26 24 36 37 29 28 23 15 16 14 7 3 5 14 23 23 20 19 19 19 21 22 23 24 25 26 28 32
17 15 14 13 12 10 9 7 5 5 4 3 3 3 4 5 5 5 1 2 11 18 19 18 18 19 20 20 19 16 14 17 17 14 14 15 17 17 15 16 15 12 13 17 16 15 17 16 15 14 13 15 17 20 26 30 27 22 25 30 26 29 37 34 28 23 16 18 16 6 7 11 12 20 25 22 17 16 17 18 20 22 23 24 26 28 31 36
15 14 12 11 9 7 6 5 4 4 4 2 3 3 3 4 5 5 3 3 8 13 16 18 17 18 21 20 19 16 16 17 16 17 18 16 16 16 14 15 16 12 13 18 18 17 17 15 14 13 12 15 17 20 29 31 25 25 28 29 28 32 36 31 23 14 11 16 9 3 12 12 15 23 16 12 12 13 16 18 20 22 23 26 28 31 36 41
13 11 9 8 6 5 4 5 5 4 2 1 2 3 4 4 3 4 4 3 7 12 13 15 16 16 17 18 17 16 17 18 18 19 18 15 16 18 16 16 18 14 12 17 19 17 17 15 12 12 14 16 15 19 30 29 25 27 28 31 32 32 34 24 11 9 11 13 6 3 15 9 14 21 8 6 10 15 18 19 20 22 25 28 32 36 42 47
11 7 5 4 4 4 4 4 4 3 2 2 3 4 6 6 2 3 5 3 7 11 11 12 15 15 14 15 16 16 17 18 19 17 15 15 16 18 16 15 19 15 9 15 19 16 15 12 12 15 16 16 14 19 29 25 23 27 28 34 37 38 37 14 5 9 11 7 6 4 15 15 10 8 4 6 11 14 18 21 23 25 27 32 37 42 48 53
7 3 1 2 3 3 3 2 2 3 4 5 5 6 8 8 6 5 4 3 6 10 10 10 14 15 15 17 18 18 18 19 20 18 17 17 16 19 19 18 23 19 12 19 23 18 14 9 12 19 15 13 16 24 28 20 22 27 26 34 38 40 37 11 4 13 5 4 6 8 22 24 8 4 9 14 14 15 19 23 26 28 31 37 42 48 54 59
4 1 1 2 2 3 3 3 3 4 5 5 6 5 5 7 9 8 5 3 6 10 10 10 14 16 17 19 20 21 21 21 24 23 22 23 22 26 26 25 28 24 19 27 28 22 17 9 13 20 13 12 21 31 29 20 24 26 25 32 29 22 21 9 6 10 5 11 14 17 28 22 10 11 14 15 16 19 24 26 28 32 36 43 48 53 60 64
3 2 3 3 4 4 5 6 6 6 6 5 6 6 5 6 7 8 8 7 7 10 10 10 14 16 17 19 21 23 22 22 23 22 22 22 22 26 25 23 26 22 20 25 25 24 19 12 16 20 12 11 23 32 28 25 29 24 20 26 19 7 7 6 5 4 8 17 19 23 25 16 13 15 16 17 19 22 27 29 30 35 42 48 53 59 65 68
5 5 4 5 5 5 6 7 8 8 7 7 6 5 7 9 8 7 9 9 9 11 9 9 14 16 16 19 22 23 22 21 22 22 21 20 21 24 23 21 23 23 23 22 21 21 15 10 18 21 12 12 25 27 21 25 26 17 16 20 16 12 8 6 5 3 8 18 25 25 17 10 13 14 17 21 22 25 30 29 32 40 45 51 58 66 70 70
6 6 6 6 5 6 7 7 8 8 9 10 8 7 9 9 8 8 9 9 9 13 11 8 12 15 16 19 20 22 21 20 22 22 21 21 23 26 25 23 24 26 24 22 21 19 13 13 20 19 10 13 26 25 20 25 19 13 18 18 20 25 19 16 17 18 17 16 18 17 12 14 17 19 24 26 25 27 27 30 38 43 48 56 65 70 69 67
7 7 7 6 7 8 8 8 7 7 9 9 7 10 14 11 9 8 8 9 10 14 13 10 13 16 17 18 19 20 20 19 21 21 21 21 22 24 24 24 26 26 24 23 22 17 15 20 22 14 8 16 25 24 22 23 17 16 19 19 26 31 21 18 20 23 18 9 9 11 14 18 18 22 29 29 26 30 32 38 44 47 56 65 67 66 62 63
8 8 7 7 8 8 8 9 8 8 9 7 6 12 16 13 11 10 9 9 10 14 16 13 14 18 19 19 19 20 19 18 19 20 20 20 21 23 23 23 25 26 24 23 21 18 19 27 26 16 13 22 26 23 23 21 17 18 17 22 31 25 14 11 10 11 10 5 8 15 19 21 18 19 25 28 31 37 40 42 46 56 67 67 61 58 59 64
9 9 9 9 9 9 9 9 8 10 9 7 11 16 16 13 11 10 9 11 12 13 16 16 16 18 19 19 20 21 21 19 19 20 20 19 21 22 22 23 26 25 24 23 21 20 21 25 26 20 20 27 26 23 25 22 17 15 16 24 26 15 13 14 8 8 9 5 7 16 23 22 18 18 23 30 36 38 41 48 58 66 66 58 55 58 62 65
10 10 10 11 11 10 10 8 8 10 6 6 13 17 14 13 12 10 10 12 12 13 16 17 17 17 18 19 20 21 22 20 19 21 20 19 21 21 21 24 25 24 24 23 21 21 19 17 19 22 26 29 25 23 26 25 18 15 19 26 22 13 16 19 16 15 12 7 7 14 17 11 10 18 26 30 32 36 48 60 65 64 58 53 56 61 65 63
10 11 12 13 13 11 11 11 10 9 7 10 16 16 14 14 12 12 12 12 13 14 15 17 17 17 18 19 19 20 22 19 18 20 19 20 22 21 21 24 25 23 22 22 21 22 20 14 18 28 32 29 24 22 22 21 18 18 23 26 20 17 20 20 22 24 17 9 6 8 11 11 15 24 26 26 32 45 59 64 61 58 54 54 59 64 64 61
10 11 13 14 14 13 13 13 12 10 12 16 17 15 15 14 13 13 13 13 14 14 16 17 18 18 18 19 19 20 21 18 17 19 19 20 21 20 21 24 25 23 22 23 22 22 23 18 22 32 36 31 27 20 15 13 12 17 24 25 20 20 21 15 14 22 23 16 13 11 12 18 23 22 21 30 45 57 63 61 57 55 54 57 64 65 62 60
10 11 13 13 13 14 13 12 13 15 16 17 15 14 15 13 13 14 14 15 15 15 17 17 18 19 18 19 18 20 22 19 17 19 19 20 21 21 22 24 25 24 22 23 22 24 25 21 24 34 35 33 30 25 21 20 21 26 30 29 26 25 25 18 13 20 26 27 29 22 14 18 22 21 29 45 56 60 59 56 54 54 57 63 67 65 61 60
11 12 13 11 12 14 12 12 15 16 16 16 16 15 14 13 14 14 15 15 15 15 16 18 19 19 19 19 19 20 22 19 17 20 21 20 22 22 23 24 24 23 22 22 21 24 22 18 26 36 37 38 38 33 31 30 31 37 39 36 33 31 32 28 24 26 26 28 29 17 10 21 29 33 45 55 57 58 56 54 54 57 63 66 65 63 61 59
11 13 13 13 13 12 12 14 15 15 16 16 16 15 14 14 14 14 15 15 15 15 16 18 19 19 19 20 19 19 21 19 19 21 21 21 23 22 23 24 23 22 23 21 21 23 19 17 23 26 25 32 35 33 37 37 36 39 40 37 35 34 32 29 30 28 19 19 20 10 12 32 42 48 57 58 54 54 54 54 57 61 65 66 64 62 60 58
10 12 14 15 13 10 12 16 14 13 16 16 16 16 15 14 14 14 14 15 15 15 16 18 19 19 19 19 19 18 20 20 19 19 21 22 22 22 23 24 22 22 22 21 22 22 19 19 19 13 9 12 17 22 31 37 38 41 40 37 34 32 29 28 30 24 13 16 23 19 24 44 56 59 61 57 52 52 55 58 61 63 64 65 63 61 58 57
8 10 13 14 13 11 13 16 14 14 15 15 15 16 15 14 14 14 14 15 16 16 17 18 19 19 19 19 18 18 19 20 18 19 21 21 21 22 23 23 22 21 21 22 23 22 21 20 16 14 14 18 25 29 28 30 37 42 41 36 32 29 28 27 27 24 22 26 30 31 37 50 61 62 59 54 51 54 60 64 64 64 64 64 63 59 57 55
8 9 10 10 11 12 14 15 14 14 14 13 14 16 15 14 13 13 14 15 16 17 18 19 20 19 18 19 19 18 20 19 18 20 21 20 21 21 22 22 21 20 22 24 24 23 24 22 18 20 25 30 34 32 28 30 37 41 39 33 28 26 26 26 25 26 29 26 28 43 52 54 61 61 52 49 53 58 64 65 65 66 65 64 62 57 54 53
9 11 11 10 11 12 13 13 13 13 13 13 14 15 15 15 14 14 15 16 17 18 18 19 21 20 19 20 20 21 21 20 20 21 21 21 22 21 22 22 20 21 24 24 25 25 24 23 23 27 34 37 33 28 29 37 40 37 31 27 26 26 26 27 25 28 32 29 35 53 59 56 60 57 48 50 57 61 64 65 65 65 65 64 61 56 53 54
9 11 12 12 12 12 12 12 13 13 13 13 14 14 15 15 14 14 15 16 17 18 18 19 20 20 20 21 21 22 22 22 22 22 22 22 21 22 23 20 19 22 24 24 25 25 24 25 26 30 38 40 34 30 34 41 41 32 21 21 27 28 26 27 28 31 37 41 47 54 55 55 54 49 49 57 61 63 65 65 65 65 65 63 59 54 55 59
9 10 12 12 11 12 12 11 12 12 12 13 14 14 15 15 15 15 15 17 17 18 19 19 19 20 20 21 21 21 22 22 22 22 22 21 21 22 21 19 20 21 22 23 24 24 25 27 28 32 39 39 36 37 42 44 37 24 17 24 31 29 27 29 33 39 43 47 51 52 52 52 49 48 56 63 63 65 67 65 65 65 64 60 55 56 61 64
9 10 12 11 10 12 11 11 11 11 12 13 14 14 15 15 15 15 15 17 17 18 19 19 19 19 20 20 21 21 21 21 20 21 20 20 20 20 19 18 19 20 21 22 22 24 26 28 31 35 37 38 38 39 45 45 33 21 24 32 30 27 29 33 39 45 47 49 53 51 46 47 50 57 64 65 64 66 66 65 65 65 61 56 55 60 64 65
10 10 11 11 10 11 11 10 10 11 12 14 14 14 15 15 15 15 15 16 17 18 19 19 19 19 20 20 20 21 21 21 21 20 19 19 19 18 17 17 18 19 21 21 22 25 26 29 34 33 31 38 38 37 44 42 26 22 30 30 25 27 34 41 48 52 50 49 50 45 41 47 57 65 67 66 66 66 64 64 65 62 58 56 59 63 64 64
Wind_Direction
162 164 162 158 152 144 137 135 131 124 120 112 94 68 51 41 29 24 29 26 27 26 24 25 24 25 22 18 10 7 12 10 13 10 2 358 350 352 352 348 344 339 334 330 328 325 319 314 311 294 273 246 222 213 221 234 240 246 246 243 248 250 251 251 254 266 275 283 292 300 303 304 304 304 304 304 306 309 309 310 311 310 308 311 313 314 315 315
162 162 160 156 147 139 136 138 134 125 117 106 83 53 37 31 22 22 27 26 27 25 22 21 21 23 23 22 16 14 13 8 20 19 8 5 7 6 5 4 358 351 349 349 346 338 329 318 305 286 277 255 236 239 238 249 255 257 255 251 249 253 257 261 268 278 283 287 292 298 301 303 305 308 308 308 309 311 313 315 313 310 309 311 311 312 314 313
161 160 158 152 142 139 142 143 136 122 116 105 77 39 19 25 24 23 28 26 26 26 24 23 23 24 26 31 26 26 33 32 31 27 21 26 24 22 24 23 20 17 14 10 3 352 340 328 315 294 290 278 260 263 263 270 272 269 266 262 261 264 270 277 285 292 295 296 300 305 307 309 309 310 311 308 306 307 311 311 307 306 307 309 311 314 315 314
159 157 152 145 143 147 148 147 135 120 116 110 70 14 10 26 27 29 27 24 27 30 32 32 33 31 34 38 36 43 53 48 47 42 37 34 29 28 30 30 31 31 24 13 7 358 346 334 326 317 299 275 260 276 298 296 281 277 276 274 275 279 284 292 300 304 306 307 312 315 312 308 305 309 313 309 307 309 309 305 303 305 308 311 314 314 314 313
155 150 145 144 150 154 152 146 130 121 117 105 12 0 18 29 29 30 27 29 33 37 43 44 43 41 42 42 44 52 56 52 48 42 38 32 29 32 34 38 39 35 22 7 5 5 359 344 330 326 313 287 277 301 315 297 283 284 287 290 289 290 293 301 309 317 325 324 322 323 314 306 306 313 319 316 314 316 314 310 308 307 308 310 311 311 310 310
149 146 146 150 157 156 153 149 141 140 122 352 345 8 25 29 28 29 32 40 43 48 53 53 52 49 49 48 51 53 53 55 49 41 39 33 34 38 39 40 40 37 20 0 5 9 5 351 332 325 318 311 302 298 301 297 292 292 299 306 301 300 305 314 316 321 333 330 325 331 329 321 321 325 330 328 323 321 319 316 315 312 311 310 310 310 310 309
149 149 152 157 159 156 157 161 173 188 197 306 19 29 33 34 34 38 43 48 51 55 57 59 58 59 60 55 54 54 51 56 55 47 44 40 42 41 38 35 33 38 23 357 3 7 9 2 341 331 326 335 322 300 305 307 304 301 311 325 337 338 329 318 315 309 317 322 321 327 331 330 332 335 338 335 327 322 321 320 321 320 318 315 313 313 311 309
153 156 158 160 159 160 167 177 197 195 157 81 58 46 44 46 49 52 54 55 57 59 61 66 64 64 65 56 53 54 52 58 58 53 48 43 43 40 35 29 25 34 25 353 356 360 1 358 347 342 338 340 321 301 308 307 308 316 338 0 7 357 341 318 318 312 312 319 322 326 328 330 333 336 337 332 325 324 321 320 322 323 322 320 316 315 312 307
158 160 160 161 164 169 178 181 176 154 108 83 69 58 58 60 62 63 63 62 60 61 66 70 68 67 67 61 58 58 57 60 58 52 45 38 39 39 28 20 16 18 9 348 351 352 348 350 351 347 344 340 324 319 318 311 328 14 21 4 326 340 341 318 314 319 321 325 329 327 325 327 331 333 332 326 322 322 319 317 318 320 322 320 317 314 311 306
158 159 161 163 168 177 179 159 140 119 99 86 74 70 71 69 70 70 70 69 64 67 70 71 73 73 70 63 58 57 56 56 54 48 39 30 31 36 20 6 3 358 349 343 346 344 343 355 356 348 342 327 323 331 336 349 72 36 16 354 308 321 326 316 319 324 326 331 330 323 320 323 327 328 328 323 320 319 316 316 316 317 318 317 314 311 310 306
153 156 160 165 171 170 154 133 118 106 95 85 81 80 79 76 76 75 74 71 68 71 71 73 75 68 63 56 52 58 54 50 46 38 35 25 21 29 16 357 354 349 341 341 344 347 357 14 8 350 334 326 320 311 324 196 251 322 315 295 299 315 321 323 332 332 329 331 325 318 315 316 322 325 324 322 320 319 316 316 316 316 316 313 310 308 309 306
151 156 161 163 160 147 133 121 108 99 91 88 88 87 85 82 77 74 74 72 70 68 67 69 69 65 63 58 56 57 51 44 37 31 29 22 14 20 13 355 354 351 345 348 353 2 15 22 16 357 337 328 311 282 301 289 294 331 296 276 293 310 320 329 340 340 337 330 320 316 309 308 320 323 321 321 321 320 319 319 318 315 314 310 306 304 304 303
151 155 155 150 140 128 118 106 97 93 93 94 92 89 86 81 75 74 77 76 71 69 67 66 67 69 71 60 54 53 49 39 31 28 22 15 10 11 9 358 357 357 355 356 1 12 16 18 24 17 357 336 308 284 297 294 314 332 312 291 297 302 315 332 341 342 344 332 323 317 306 308 326 324 320 321 319 320 322 323 320 313 310 305 301 300 300 299
148 147 141 133 123 114 104 96 95 96 97 96 91 88 86 83 79 78 80 78 75 75 75 72 70 69 59 50 51 47 42 34 28 23 13 10 7 7 6 0 2 2 359 359 8 16 9 9 13 4 0 351 313 283 292 302 317 330 323 309 314 312 314 325 330 333 339 335 330 321 306 311 326 323 318 319 317 320 323 324 319 309 304 299 296 296 296 295
141 136 128 119 110 104 99 98 98 97 98 96 92 88 87 87 85 83 82 79 77 76 73 69 64 57 43 43 43 37 34 30 25 21 15 12 8 9 6 5 8 4 0 1 9 16 8 5 354 338 3 6 323 290 292 298 313 333 336 327 325 321 318 325 330 329 333 331 329 323 308 309 320 321 318 319 321 325 326 322 314 303 296 292 290 289 289 290
133 126 116 108 104 101 99 99 99 99 100 99 95 89 88 88 84 82 79 75 76 73 65 54 47 46 36 37 39 35 33 28 23 22 19 14 11 11 11 13 9 0 3 4 6 11 5 0 347 343 3 359 355 332 294 287 319 342 347 342 337 330 326 330 334 332 330 325 324 320 308 309 318 322 321 324 328 330 328 318 304 294 287 283 283 282 282 282
125 118 110 107 104 101 100 101 104 105 104 99 92 89 90 85 79 77 77 77 74 66 61 51 43 45 40 38 36 33 32 28 25 22 16 13 13 13 15 17 9 1 5 4 3 4 356 352 357 355 341 343 357 354 344 336 339 346 348 343 337 332 329 327 330 333 326 320 318 315 310 312 318 321 322 327 330 329 324 307 289 281 276 273 274 274 274 274
120 116 112 110 107 104 104 103 107 112 110 101 91 89 87 81 79 77 77 78 75 69 63 53 49 48 36 30 28 27 27 24 22 18 14 14 14 16 16 15 11 9 5 359 356 355 356 359 350 319 305 339 351 356 10 6 349 346 341 338 332 327 327 325 328 331 323 318 317 317 319 321 319 320 323 324 323 322 312 290 273 267 264 264 265 265 264 265
121 118 114 112 110 110 107 103 105 109 108 101 93 91 83 78 79 77 76 75 72 69 58 45 44 43 33 25 24 24 23 21 17 11 12 14 14 18 14 11 12 8 0 354 350 354 359 349 332 320 334 354 2 7 13 5 352 346 338 334 329 324 325 326 327 328 324 318 318 321 326 327 322 321 326 327 324 318 298 276 264 259 256 255 255 255 256 259
121 116 113 114 114 113 110 107 105 104 102 96 91 87 83 80 79 78 78 67 58 57 51 41 39 38 34 30 28 23 20 19 15 10 13 15 16 16 11 11 9 359 354 356 358 1 352 337 348 10 13 9 10 11 10 360 350 345 340 334 329 325 324 326 329 330 329 319 318 325 326 326 325 318 324 335 340 336 298 270 260 255 250 248 248 249 252 256
119 116 118 121 118 113 110 109 106 104 100 94 88 85 86 87 78 72 63 52 52 52 48 41 38 36 33 34 35 30 22 12 10 12 13 16 17 14 10 10 2 356 0 3 5 357 340 342 7 19 11 5 4 5 4 357 347 343 341 330 327 328 326 329 335 335 332 321 317 323 325 329 328 315 317 330 343 352 312 276 259 250 245 243 243 247 250 254
121 122 125 123 118 112 108 106 105 104 101 99 99 97 92 84 72 63 53 53 54 51 47 42 37 34 31 31 31 33 27 9 8 14 16 19 17 11 12 8 2 5 7 4 360 349 347 1 16 10 359 357 353 354 355 352 347 344 340 330 329 336 335 334 337 335 327 320 317 321 330 334 330 317 317 318 334 344 318 283 258 245 242 242 242 246 251 255
127 128 126 121 115 111 108 106 104 105 106 109 110 106 89 71 66 60 52 53 52 51 48 40 35 33 31 29 28 31 27 18 18 19 20 20 15 12 12 7 7 8 4 3 2 359 5 10 5 355 349 343 337 340 344 344 347 346 341 335 332 339 341 333 331 328 320 319 317 318 326 331 344 334 317 309 325 330 313 278 254 245 242 242 244 250 257 262
132 131 125 119 114 111 109 107 108 112 114 113 112 103 65 45 50 52 50 48 45 45 41 34 31 29 27 25 25 27 23 22 21 20 24 21 14 14 10 6 6 4 5 8 6 4 7 3 353 347 332 328 332 335 339 339 344 347 343 339 333 331 334 329 324 319 316 317 315 318 326 0 80 332 301 306 320 317 299 268 250 243 241 242 247 256 264 272
134 130 124 118 113 110 108 105 106 110 108 104 99 54 16 16 23 38 53 44 37 36 34 28 25 25 24 21 21 22 20 19 19 21 23 20 17 14 8 4 2 4 9 7 1 358 0 356 348 341 326 328 334 333 338 339 339 342 341 337 331 321 325 328 323 317 316 318 323 328 338 107 120 324 310 315 314 301 281 260 247 239 241 247 254 262 271 282
133 128 120 115 110 106 104 97 95 95 81 69 53 26 18 18 30 39 72 42 28 29 29 22 21 22 20 20 20 17 15 16 20 21 17 16 18 14 8 3 1 6 7 1 358 355 353 350 345 341 333 331 329 329 338 339 334 335 336 334 328 316 323 329 325 316 311 312 321 330 348 300 300 327 321 313 302 285 269 256 249 246 250 256 263 273 282 291
131 124 117 111 105 101 95 84 84 74 53 43 30 27 17 19 38 36 72 47 13 20 24 18 20 18 13 19 19 18 19 16 18 19 17 20 20 12 5 1 2 4 2 359 358 353 349 345 342 339 333 329 332 336 342 340 331 326 330 333 327 320 327 331 323 311 301 311 311 295 336 324 312 319 312 301 291 270 258 255 253 254 259 264 273 285 294 301
128 120 112 104 96 91 80 69 66 46 34 28 25 37 14 12 36 36 75 87 6 11 18 16 18 14 10 13 12 19 25 17 16 18 18 22 17 11 3 0 4 1 0 2 355 348 346 342 340 338 331 333 340 344 343 338 328 324 328 330 324 323 333 333 316 293 295 313 293 260 347 335 310 313 299 283 285 262 260 265 262 265 270 276 285 296 304 310
127 120 108 92 76 64 54 50 44 33 28 25 55 54 24 21 47 58 86 84 9 8 12 11 14 13 12 9 7 17 23 18 20 19 15 13 11 9 3 2 6 358 355 1 355 347 344 342 344 342 334 334 337 340 340 334 326 326 325 324 323 329 340 336 298 277 299 301 251 304 357 354 307 309 279 232 270 263 268 270 270 279 283 291 299 305 310 314
134 127 102 69 43 33 38 40 38 45 67 97 98 67 42 44 82 90 76 47 5 5 5 6 9 12 13 11 11 19 23 22 22 20 15 12 12 8 4 3 4 360 353 356 357 353 346 346 353 346 335 332 329 334 338 331 325 328 324 326 331 339 348 348 240 301 304 280 223 254 339 339 311 297 262 277 280 266 269 269 273 282 288 299 307 311 316 319
148 141 70 18 15 28 40 54 71 84 90 95 89 71 62 62 75 93 68 16 3 4 3 5 6 8 10 12 17 18 19 18 17 17 14 12 10 5 6 7 3 5 356 351 359 4 357 356 356 349 337 328 328 335 339 330 327 331 326 334 341 344 349 354 288 327 308 263 279 282 323 328 303 252 289 303 299 283 281 280 284 290 297 305 311 316 321 324
173 180 30 19 43 59 69 83 86 86 89 84 72 73 84 70 61 66 55 15 5 4 7 9 6 9 10 11 15 15 15 14 12 12 10 9 6 4 9 10 5 6 355 349 355 1 2 359 352 351 341 334 338 339 340 338 337 333 330 344 352 348 347 346 317 331 281 281 298 307 320 319 286 277 284 296 301 292 291 290 291 299 307 311 315 319 323 325
153 121 103 88 74 71 79 79 74 81 85 81 77 77 95 89 64 54 49 43 25 10 9 9 8 11 11 11 14 14 13 11 10 10 9 7 4 7 12 10 8 7 354 350 351 353 0 359 349 350 340 336 344 342 339 339 338 333 333 350 -0 350 334 320 299 306 282 287 295 308 315 304 290 288 279 291 296 288 291 290 292 304 311 315 319 322 323 323
120 112 104 87 74 73 82 81 76 82 83 81 88 91 92 91 82 69 57 48 34 19 13 12 12 12 11 13 15 13 10 7 8 9 7 3 2 7 10 8 9 5 356 355 354 351 354 347 346 346 332 333 346 345 338 333 334 330 329 340 346 339 317 277 261 251 283 293 298 307 308 290 297 290 280 290 287 283 287 289 297 307 312 316 319 321 320 319
106 104 95 85 84 84 87 85 78 83 86 85 92 101 100 93 86 81 59 44 34 23 20 19 17 16 15 16 14 11 8 5 5 5 3 2 3 5 5 4 4 2 359 358 353 348 333 326 345 343 311 323 343 346 339 334 335 328 324 326 333 331 308 269 266 272 278 290 296 297 285 285 294 287 289 293 285 280 284 290 298 303 309 315 318 319 319 320
101 97 91 88 88 88 91 86 76 83 91 92 95 91 92 93 88 79 57 44 36 26 26 23 15 17 18 17 15 11 8 6 5 3 1 2 3 2 1 1 360 358 360 356 351 348 326 325 346 349 308 325 341 347 344 339 333 323 320 321 328 328 308 276 277 282 285 284 286 286 281 289 294 291 294 293 284 285 289 295 302 309 316 318 319 320 321 322
97 91 88 88 88 94 97 88 82 85 88 99 108 91 89 91 83 74 59 45 37 28 28 26 18 16 13 13 12 10 9 8 6 2 1 1 360 358 358 359 357 354 355 353 349 346 328 326 342 353 335 336 341 343 345 344 332 318 314 322 329 329 313 294 286 291 293 269 282 292 290 294 294 289 292 292 294 298 300 305 314 319 321 320 320 321 323 324
92 89 91 91 92 95 94 96 95 89 86 93 97 91 88 86 78 70 60 45 38 31 27 26 22 15 11 10 8 7 8 8 6 2 2 2 356 355 356 355 353 351 349 349 346 343 333 325 334 345 341 340 343 341 345 348 337 316 310 325 333 327 307 307 294 290 295 278 286 292 294 296 285 280 294 301 303 307 313 319 321 321 321 321 322 324 325 326
94 94 96 94 95 96 95 101 93 86 94 88 87 89 86 82 77 66 58 46 37 31 26 25 22 14 11 9 7 6 5 5 5 2 360 358 354 352 354 352 349 348 346 346 343 340 336 320 319 332 338 340 343 345 346 346 337 319 315 325 332 321 309 307 296 290 288 286 296 295 298 297 282 294 304 304 306 315 322 324 323 323 322 321 324 327 327 326
98 98 97 92 93 95 95 94 86 87 100 85 82 88 84 80 74 61 56 46 36 31 26 23 20 16 12 8 7 6 4 2 1 1 358 356 353 350 350 349 347 346 344 344 342 338 337 316 302 324 339 343 345 347 345 340 328 317 318 324 328 323 319 311 299 294 288 283 302 299 296 299 306 308 304 302 313 321 323 323 323 323 321 322 326 328 327 327
102 99 93 89 89 87 84 88 89 85 82 78 80 84 81 76 68 59 52 42 35 30 24 22 18 16 14 10 6 3 2 1 358 359 358 354 352 348 346 346 345 347 344 342 343 341 339 324 306 323 337 341 343 344 339 334 321 313 319 323 327 327 325 317 299 298 294 286 288 292 292 301 307 308 307 314 321 322 322 323 323 321 321 325 328 327 327 328
100 96 89 86 84 81 78 83 83 74 72 76 79 79 76 71 62 55 46 38 34 27 23 21 16 14 13 9 7 3 0 358 356 358 356 351 350 346 344 345 345 346 345 342 344 344 340 332 321 327 333 337 344 347 345 345 336 329 329 329 331 332 325 314 294 296 298 292 291 291 285 298 310 317 320 322 322 322 323 323 322 322 324 327 328 327 327 328
93 89 86 81 76 79 81 76 73 70 72 75 75 73 69 64 57 49 40 35 31 26 22 19 14 13 11 8 8 4 360 356 353 355 354 349 347 346 345 345 344 345 345 342 343 344 343 338 330 330 332 337 343 345 343 343 338 335 335 333 331 328 322 315 304 299 295 290 294 295 280 297 311 317 319 321 322 322 323 323 323 324 326 327 328 328 328 328
84 84 86 80 73 77 81 74 69 68 71 71 70 69 64 58 53 44 38 32 27 26 21 16 14 13 10 8 6 3 1 357 351 351 351 347 346 346 344 344 344 344 344 342 343 345 345 341 335 333 334 338 342 343 338 337 335 333 332 330 327 324 323 323 316 308 292 281 294 300 285 299 310 316 319 323 323 322 322 323 325 326 327 328 329 329 329 329
80 82 84 79 74 73 74 72 66 62 66 68 68 66 59 54 49 41 35 29 25 24 19 16 15 12 10 8 3 1 1 357 351 348 349 347 345 345 343 343 343 343 343 342 343 343 341 340 339 338 335 328 326 327 328 328 328 329 329 329 327 326 328 326 317 308 293 295 302 293 289 303 313 319 322 324 323 322 324 326 327 327 328 328 330 330 330 329
85 84 84 81 77 70 66 68 65 60 62 64 63 61 55 51 47 39 32 27 23 22 18 15 14 11 9 6 2 1 359 357 353 348 347 348 345 344 342 342 343 344 344 342 341 341 339 338 336 328 319 315 315 319 323 324 324 326 328 329 329 329 329 324 313 302 304 309 304 301 305 310 316 322 324 323 323 325 327 327 327 328 328 329 331 331 330 329
85 84 85 85 80 70 64 65 64 60 60 60 59 58 51 46 42 36 31 26 23 20 15 12 12 10 7 4 2 1 358 356 354 350 349 348 346 344 344 343 344 345 344 342 342 341 337 336 333 325 322 324 326 325 326 329 328 326 325 327 329 330 325 319 311 307 316 318 307 313 319 317 317 322 323 323 326 328 328 327 328 328 329 330 331 331 331 330
82 82 82 82 80 73 66 65 65 61 58 57 56 55 47 41 38 34 28 25 23 19 14 10 9 8 5 3 2 359 356 356 356 354 351 349 347 347 346 346 347 347 345 342 340 339 335 333 333 328 325 330 333 331 330 334 334 331 328 328 331 330 324 320 317 317 324 322 312 316 320 317 317 321 323 324 328 328 326 327 328 328 330 331 332 332 331 329
78 82 82 79 77 75 69 66 66 63 56 53 53 51 45 38 35 32 27 24 21 18 14 10 8 7 5 3 2 359 356 355 356 355 352 350 348 347 347 347 347 347 345 340 338 337 334 333 333 328 326 333 340 337 335 338 337 337 339 337 334 330 324 322 322 325 326 320 316 317 317 315 318 321 323 326 328 326 326 328 328 329 331 332 332 331 329 328
75 79 81 78 74 73 71 67 66 63 57 53 51 48 42 36 33 30 26 23 20 16 15 11 8 7 4 3 2 360 357 355 354 353 352 352 349 347 348 347 347 347 344 340 337 336 334 332 333 330 327 334 343 339 337 339 339 339 342 339 335 330 327 325 326 330 329 322 320 320 316 316 321 324 325 327 327 327 328 329 329 330 331 332 331 330 328 328
72 74 77 77 71 71 71 68 65 61 56 54 50 45 40 35 32 29 24 21 19 16 14 11 9 6 4 4 2 360 358 356 354 353 352 352 350 349 347 345 346 347 345 343 338 336 335 333 335 335 328 332 342 340 335 339 343 343 342 339 334 330 331 333 332 332 329 323 322 322 318 319 324 326 326 327 328 329 329 329 329 330 332 333 330 328 328 328
68 70 74 74 69 71 74 69 64 59 55 54 49 43 39 34 32 29 23 20 18 16 13 11 10 7 5 4 2 0 359 357 355 355 354 352 350 351 349 346 349 349 348 347 341 339 340 335 336 338 327 329 340 339 334 341 348 345 339 335 330 330 334 336 333 330 330 327 324 320 318 321 325 327 328 328 329 330 329 329 330 331 332 332 329 329 328 328